Location: Mercogliano
(40.9167°N, 14.7333°E)
Time: 07:24:30
(UTC+00:00)

Cosmos 2150 Rocket - Pass Details

Date: 21 January 2021
Orbit: 748 x 808 km, 74.0° (Epoch: 04 March)

Event Time Altitude Azimuth Distance (km) Brightness Sun altitude
Rises 04:30:47 0° 351° (N) 3,263 7.1 -20.5°
Reaches altitude 10° 04:33:34 10° 5° (N) 2,343 6.5 -20.0°
Maximum altitude 04:37:57 25° 60° (ENE) 1,544 6.1 -19.2°
Drops below altitude 10° 04:42:21 10° 115° (ESE) 2,363 7.7 -18.4°
Sets 04:45:09 0° 128° (SE) 3,297 8.4 -17.9°
